This is the latest recevied weather packets stored in our database for station/object K4AVM-13. If no packets are shown the sender has not sent any weather packets the latest 10 day(s).
| Time | Temp. | Humidity | Pressure | Rain* | Wind** | Luminosity | Snow |
|---|---|---|---|---|---|---|---|
| 1778085642 | 18.89° C | 88% | 1012.9 hPa | 0 mm | - | 235 W/m² | - |
| 1778085338 | 18.89° C | 89% | 1013 hPa | 0 mm | - | 197 W/m² | - |
| 1778085033 | 18.33° C | 88% | 1012.9 hPa | 0 mm | - | 220 W/m² | - |
| 1778084730 | 18.33° C | 90% | 1012.8 hPa | 0 mm | - | 226 W/m² | - |
| 1778084422 | 17.78° C | 91% | 1012.9 hPa | 0 mm | - | 188 W/m² | - |
| 1778084119 | 17.22° C | 92% | 1013 hPa | 0 mm | - | 167 W/m² | - |
| 1778083816 | 16.67° C | 93% | 1012.9 hPa | 0 mm | - | 107 W/m² | - |
| 1778083514 | 16.67° C | 95% | 1012.8 hPa | 0 mm | - | 78 W/m² | - |
| 1778083211 | 16.67° C | 95% | 1013 hPa | 0 mm | - | 86 W/m² | - |
| 1778082909 | 16.67° C | 95% | 1012.8 hPa | 0 mm | - | 95 W/m² | - |
| 1778081800 | 16.67° C | 97% | 1013.6 hPa | 0 mm | - | 178 W/m² | - |
| 1778081497 | 16.67° C | 97% | 1013.5 hPa | 0 mm | - | 171 W/m² | - |
| 1778081194 | 16.67° C | 97% | 1013.8 hPa | 0 mm | - | 171 W/m² | - |
| 1778080892 | 16.67° C | 98% | 1013.7 hPa | 0 mm | - | 156 W/m² | - |
| 1778080591 | 16.67° C | 98% | 1013.8 hPa | 0 mm | - | 84 W/m² | - |
| 1778080287 | 16.67° C | 98% | 1013.6 hPa | 0 mm | - | 143 W/m² | - |
| 1778079984 | 16.11° C | 97% | 1013.9 hPa | 0 mm | - | 163 W/m² | - |
| 1778079681 | 16.11° C | 97% | 1013.8 hPa | 1.27 mm | - | 97 W/m² | - |
| 1778079378 | 16.11° C | 96% | 1013.7 hPa | 3.05 mm | - | 107 W/m² | - |
| 1778079075 | 16.11° C | 95% | 1014 hPa | 4.83 mm | - | 63 W/m² | - |
| 1778078772 | 16.11° C | 94% | 1014.2 hPa | 3.05 mm | - | 36 W/m² | - |
| 1778078469 | 16.67° C | 93% | 1014.3 hPa | 3.05 mm | - | 40 W/m² | - |
| 1778078166 | 16.67° C | 91% | 1014.3 hPa | 3.05 mm | - | 40 W/m² | - |
| 1778077864 | 16.67° C | 90% | 1014.2 hPa | 1.27 mm | - | 62 W/m² | - |
| 1778077562 | 17.22° C | 88% | 1014.2 hPa | 1.78 mm | - | 73 W/m² | - |
* Rain latest hour (hover to see other rain measurements)
** Current wind speed in m/s (hover to see current wind gust speed)